{"data":{"norad_id":68239,"epoch":"2026-05-25T00:00:02.000160Z","epoch_age_seconds":78148,"freshness":"FRESH","line1":"1 68239U 26054H   26145.00002315  .00001618  00000+0  57271-4 0  9995","line2":"2 68239  53.1583 295.7891 0000709  43.7141 105.5456 15.35402493  5920","mean_motion":15.35402493,"eccentricity":7.09e-5,"inclination_deg":53.1583,"raan_deg":295.7891,"arg_perigee_deg":43.7141,"mean_anomaly_deg":105.5456,"bstar":5.7271e-5,"rev_number":592,"period_min":93.786483125112,"perigee_km":459.2404366383,"apogee_km":460.21004550408,"semimajor_km":6837.8622410712,"source":"CELESTRAK","updated_at":"2026-05-25T13:38:21.884304Z"}}